Location: Asheville, NC
(35.6000°N, 82.5500°W)
Time: 22:54:21
(UTC-04:00)

Tiangong 2 - Pass Details

Date: 09 October 2017
Orbit: 388 x 391 km, 42.8° (Epoch: 20 October)

Event Time Altitude Azimuth Distance (km) Brightness Sun altitude
Exits shadow 06:28:31 28° 269° (W) 769 2.0 -13.7°
Maximum altitude 06:29:58 56° 337° (NNW) 465 1.3 -13.4°
Drops below altitude 10° 06:33:07 10° 57° (ENE) 1,419 4.9 -12.7°
Sets 06:35:14 0° 62° (ENE) 2,276 6.2 -12.3°
